• In Uzbekistan
  • List of Countries
  • For 7 days
  • Water Temperature
  • Satellite Maps
  • Weather Map
  • Weather Widgets
  • user-avatar
    Login

    Hourly Weather Petalcingo

    Today, 22 February, Friday

    Time Temperature Precipitation Wind Pressure Humidity
    00:00 +15°C° 0.4 mm 1 mps 637 mmHg 93%
    01:00 +15°C° 0 mm 1 mps 637 mmHg 92%
    02:00 +15°C° 0 mm 1 mps 637 mmHg 92%
    03:00 +15°C° 0 mm 1 mps 637 mmHg 91%
    04:00 +15°C° 0 mm 1 mps 637 mmHg 90%
    05:00 +14°C° 0 mm 1 mps 637 mmHg 90%
    06:00 +14°C° 0 mm 1 mps 637 mmHg 89%
    07:00 +18°C° 0 mm 1 mps 638 mmHg 80%
    08:00 +18°C° 0 mm 0 mps 639 mmHg 70%
    09:00 +21°C° 0 mm 0 mps 640 mmHg 61%
    10:00 +22°C° 0 mm 0 mps 641 mmHg 57%
    11:00 +26°C° 0 mm 1 mps 641 mmHg 53%
    12:00 +27°C° 0 mm 1 mps 641 mmHg 49%
    13:00 +26°C° 0.7 mm 1 mps 640 mmHg 57%
    14:00 +25°C° 0.7 mm 1 mps 640 mmHg 64%
    15:00 +24°C° 0.7 mm 1 mps 639 mmHg 71%
    16:00 +23°C° 1.6 mm 1 mps 638 mmHg 78%
    17:00 +19°C° 1.6 mm 0 mps 638 mmHg 84%
    18:00 +18°C° 1.6 mm 0 mps 637 mmHg 91%
    19:00 +17°C° 0.6 mm 0 mps 638 mmHg 91%
    20:00 +18°C° 0.6 mm 1 mps 638 mmHg 92%
    21:00 +16°C° 0.6 mm 1 mps 638 mmHg 92%
    22:00 +16°C° 0 mm 1 mps 638 mmHg 91%
    23:00 +16°C° 0 mm 1 mps 638 mmHg 90%

    Tomorrow, 23 February, Saturday

    Time Temperature Precipitation Wind Pressure Humidity
    00:00 +16°C° 0 mm 1 mps 638 mmHg 89%
    01:00 +15°C° 0 mm 1 mps 638 mmHg 89%
    02:00 +15°C° 0 mm 1 mps 638 mmHg 89%
    03:00 +15°C° 0 mm 1 mps 637 mmHg 89%
    04:00 +15°C° 0 mm 1 mps 637 mmHg 89%
    05:00 +14°C° 0 mm 1 mps 637 mmHg 88%
    06:00 +14°C° 0 mm 1 mps 637 mmHg 88%
    07:00 +18°C° 0 mm 1 mps 639 mmHg 78%
    08:00 +18°C° 0 mm 0 mps 640 mmHg 69%
    09:00 +21°C° 0 mm 0 mps 641 mmHg 60%
    10:00 +24°C° 0 mm 1 mps 641 mmHg 55%
    11:00 +26°C° 0 mm 1 mps 642 mmHg 50%
    12:00 +27°C° 0 mm 1 mps 642 mmHg 46%
    13:00 +26°C° 0.4 mm 1 mps 641 mmHg 55%
    14:00 +25°C° 0.4 mm 1 mps 640 mmHg 64%
    15:00 +24°C° 0.4 mm 1 mps 639 mmHg 73%
    16:00 +22°C° 1.6 mm 1 mps 638 mmHg 80%
    17:00 +19°C° 1.6 mm 0 mps 638 mmHg 86%
    18:00 +17°C° 1.6 mm 0 mps 637 mmHg 92%
    19:00 +16°C° 0.8 mm 0 mps 638 mmHg 93%
    20:00 +18°C° 0.8 mm 1 mps 638 mmHg 93%
    21:00 +16°C° 0.8 mm 1 mps 639 mmHg 93%
    22:00 +15°C° 0 mm 1 mps 639 mmHg 92%
    23:00 +15°C° 0 mm 1 mps 639 mmHg 91%

    Day after tomorrow, 24 February, Sunday

    Time Temperature Precipitation Wind Pressure Humidity
    00:00 +15°C° 0 mm 1 mps 639 mmHg 90%
    01:00 +15°C° 0.2 mm 1 mps 639 mmHg 89%
    02:00 +15°C° 0.2 mm 1 mps 638 mmHg 89%
    03:00 +14°C° 0.2 mm 1 mps 638 mmHg 89%
    04:00 +14°C° 0.1 mm 1 mps 638 mmHg 89%
    05:00 +14°C° 0.1 mm 1 mps 638 mmHg 89%
    06:00 +14°C° 0.1 mm 1 mps 638 mmHg 89%
    07:00 +15°C° 0 mm 0 mps 640 mmHg 82%
    08:00 +17°C° 0 mm 0 mps 641 mmHg 74%
    09:00 +19°C° 0 mm 0 mps 642 mmHg 66%
    10:00 +20°C° 0.6 mm 0 mps 642 mmHg 68%
    11:00 +23°C° 0.6 mm 1 mps 642 mmHg 69%
    12:00 +23°C° 0.6 mm 1 mps 642 mmHg 71%
    13:00 +23°C° 0.8 mm 1 mps 641 mmHg 72%
    14:00 +23°C° 0.8 mm 1 mps 640 mmHg 73%
    15:00 +23°C° 0.8 mm 1 mps 639 mmHg 74%
    16:00 +21°C° 0.9 mm 1 mps 639 mmHg 80%
    17:00 +20°C° 0.9 mm 1 mps 639 mmHg 86%
    18:00 +18°C° 0.9 mm 1 mps 638 mmHg 92%
    19:00 +16°C° 0.3 mm 1 mps 639 mmHg 93%
    20:00 +15°C° 0.3 mm 1 mps 639 mmHg 95%
    21:00 +14°C° 0.3 mm 1 mps 640 mmHg 97%
    22:00 +14°C° 0.4 mm 1 mps 640 mmHg 96%
    23:00 +14°C° 0.4 mm 1 mps 640 mmHg 95%

    25 February, Monday

    Time Temperature Precipitation Wind Pressure Humidity
    00:00 +14°C° 0.4 mm 1 mps 640 mmHg 94%
    01:00 +14°C° 0.2 mm 1 mps 639 mmHg 94%
    02:00 +14°C° 0.2 mm 1 mps 639 mmHg 93%
    03:00 +14°C° 0.2 mm 1 mps 639 mmHg 92%
    04:00 +13°C° 0 mm 1 mps 639 mmHg 92%
    05:00 +13°C° 0 mm 1 mps 639 mmHg 92%
    06:00 +13°C° 0 mm 1 mps 639 mmHg 92%
    07:00 +15°C° 0 mm 1 mps 640 mmHg 85%
    08:00 +15°C° 0 mm 0 mps 641 mmHg 79%
    09:00 +17°C° 0 mm 0 mps 642 mmHg 72%
    10:00 +18°C° 0.3 mm 0 mps 642 mmHg 72%
    11:00 +21°C° 0.3 mm 1 mps 642 mmHg 72%
    12:00 +22°C° 0.3 mm 1 mps 642 mmHg 72%
    13:00 +22°C° 1.1 mm 1 mps 641 mmHg 75%
    14:00 +21°C° 1.1 mm 1 mps 640 mmHg 78%
    15:00 +21°C° 1.1 mm 1 mps 639 mmHg 81%
    16:00 +20°C° 0.7 mm 1 mps 639 mmHg 85%
    17:00 +18°C° 0.7 mm 1 mps 639 mmHg 89%
    18:00 +15°C° 0.7 mm 0 mps 639 mmHg 93%
    19:00 +15°C° 0.5 mm 0 mps 639 mmHg 94%
    20:00 +15°C° 0.5 mm 1 mps 639 mmHg 94%
    21:00 +15°C° 0.5 mm 1 mps 640 mmHg 95%
    22:00 +14°C° 0.1 mm 1 mps 640 mmHg 94%
    23:00 +14°C° 0.1 mm 1 mps 639 mmHg 94%

    26 February, Tuesday

    Time Temperature Precipitation Wind Pressure Humidity
    00:00 +14°C° 0.1 mm 1 mps 639 mmHg 93%
    01:00 +13°C° 0 mm 1 mps 639 mmHg 93%
    02:00 +13°C° 0 mm 1 mps 638 mmHg 92%
    03:00 +13°C° 0 mm 1 mps 638 mmHg 92%
    04:00 +12°C° 0 mm 1 mps 638 mmHg 91%
    05:00 +12°C° 0 mm 1 mps 638 mmHg 90%
    06:00 +11°C° 0 mm 1 mps 638 mmHg 89%
    07:00 +13°C° 0 mm 1 mps 639 mmHg 78%
    08:00 +16°C° 0 mm 1 mps 641 mmHg 67%
    09:00 +19°C° 0 mm 1 mps 642 mmHg 56%
    10:00 +21°C° 0 mm 1 mps 642 mmHg 51%
    11:00 +23°C° 0 mm 1 mps 642 mmHg 47%
    12:00 +25°C° 0 mm 2 mps 642 mmHg 42%
    13:00 +25°C° 0 mm 2 mps 642 mmHg 41%
    14:00 +25°C° 0 mm 2 mps 641 mmHg 41%
    15:00 +26°C° 0 mm 2 mps 640 mmHg 40%
    16:00 +23°C° 0 mm 2 mps 640 mmHg 51%
    17:00 +21°C° 0 mm 1 mps 639 mmHg 62%
    18:00 +19°C° 0 mm 1 mps 639 mmHg 74%
    19:00 +18°C° 0 mm 1 mps 639 mmHg 75%
    20:00 +16°C° 0 mm 1 mps 639 mmHg 76%
    21:00 +14°C° 0 mm 1 mps 639 mmHg 77%
    22:00 +14°C° 0 mm 1 mps 639 mmHg 75%
    23:00 +14°C° 0 mm 1 mps 639 mmHg 74%

    27 February, Wednesday

    Time Temperature Precipitation Wind Pressure Humidity
    00:00 +13°C° 0 mm 1 mps 639 mmHg 72%
    01:00 +13°C° 0 mm 1 mps 638 mmHg 72%
    02:00 +12°C° 0 mm 1 mps 638 mmHg 73%
    03:00 +12°C° 0 mm 1 mps 637 mmHg 73%
    04:00 +11°C° 0 mm 1 mps 637 mmHg 70%
    05:00 +11°C° 0 mm 1 mps 637 mmHg 68%
    06:00 +11°C° 0 mm 1 mps 637 mmHg 65%
    07:00 +13°C° 0 mm 1 mps 638 mmHg 56%
    08:00 +16°C° 0 mm 1 mps 640 mmHg 47%
    09:00 +20°C° 0 mm 1 mps 641 mmHg 38%
    10:00 +22°C° 0 mm 1 mps 641 mmHg 37%
    11:00 +24°C° 0 mm 1 mps 641 mmHg 35%
    12:00 +26°C° 0 mm 1 mps 641 mmHg 33%
    13:00 +26°C° 0 mm 2 mps 641 mmHg 37%
    14:00 +26°C° 0 mm 2 mps 640 mmHg 42%
    15:00 +26°C° 0 mm 2 mps 639 mmHg 46%
    16:00 +23°C° 0.1 mm 2 mps 639 mmHg 58%
    17:00 +21°C° 0.1 mm 1 mps 638 mmHg 71%
    18:00 +17°C° 0.1 mm 0 mps 638 mmHg 83%
    19:00 +18°C° 0 mm 1 mps 638 mmHg 85%
    20:00 +16°C° 0 mm 1 mps 638 mmHg 87%
    21:00 +15°C° 0 mm 1 mps 638 mmHg 88%
    22:00 +14°C° 0 mm 1 mps 637 mmHg 84%
    23:00 +13°C° 0 mm 1 mps 637 mmHg 79%
    Show more